Location: Newark
(48.3453°N, 0.5589°E)
Time: 09:40:12
(UTC+00:00)

A-11 Canister half - Pass Details

Date: 07 December 2019
Orbit: 1517 x 1683 km, 47.2° (Epoch: 27 January)

Event Time Altitude Azimuth Distance (km) Brightness Sun altitude
Rises 17:21:32 0° 283° (WNW) 4,864 12.7 -12.3°
Reaches altitude 10° 17:24:39 10° 281° (W) 3,895 12.1 -12.8°
Maximum altitude 17:34:35 71° 201° (SSW) 1,753 9.4 -14.4°
Drops below altitude 10° 17:44:41 10° 119° (ESE) 3,942 10.7 -16.0°
Enters shadow 17:46:22 - 118° (ESE) 4,462 11.0 -16.3°
Sets 17:47:51 0° 118° (ESE) 4,925 - -16.5°
